Regional Weather Roundup
Issued by NWS

Home | Current Version | Previous Version | Graphics & Text | Print | Product List | Glossary On
Versions: 1 2 3 4 5 6 7 8 9 10 11 12 13 14 15 16 17 18 19 20 21 22 23 24 25 26 27 28 29 30 31 32 33 34 35 36 37 38 39 40 41 42 43 44 45 46 47 48 49 50
000
ASUS43 KLSX 161607
RWRMO

WEATHER SUMMARY FOR MISSOURI
NATIONAL WEATHER SERVICE SPRINGFIELD MO
1100 AM CDT TUE SEP 16 2014

NOTE: "FAIR" INDICATES FEW OR NO CLOUDS BELOW 12,000 FEET WITH NO
       SIGNIFICANT WEATHER AND/OR OBSTRUCTIONS TO VISIBILITY.
       CURRENT SKY AND/OR WEATHER CONDITIONS ARE NOT AVAILABLE FOR
       CHILLICOTHE AND FARMINGTON.

MOZ001>031-035>038-043-044-053-054-161700-
...NORTHERN AND WESTERN MISSOURI...

CITY           SKY/WX    TMP DP  RH WIND       PRES   REMARKS
KANSAS CTY INT MOSUNNY   60  51  72 SE5       30.23F
KANSAS C DTWN  SUNNY     62  50  64 VRB3      30.22F
LEE`S SUMMIT   MOSUNNY   61  50  67 VRB3      30.23F
ST JOSEPH      SUNNY     60  49  66 E8        30.24F
CHILLICOTHE      N/A     60  48  64 VRB6      30.25F
KIRKSVILLE     MOSUNNY   59  47  64 E6        30.24F

$$
MOZ066>068-077>081-088>096-101>105-161700-
...SOUTHWEST MISSOURI...

CITY           SKY/WX    TMP DP  RH WIND       PRES   REMARKS
SPRINGFIELD    CLOUDY    66  58  75 NE9       30.18F
JOPLIN         CLOUDY    61  59  93 NE7       30.20F FOG

$$
MOZ032>034-039>042-045>050-055>058-069>072-161700-
...CENTRAL MISSOURI...

CITY           SKY/WX    TMP DP  RH WIND       PRES   REMARKS
COLUMBIA       MOSUNNY   62  52  69 CALM      30.23F
JEFFERSON CITY CLOUDY    61  52  72 CALM      30.22F
ROLLA          CLOUDY    58  55  90 E3        30.21S
SEDALIA        CLOUDY    61  53  75 E6        30.23F
WHITEMAN AFB   PTSUNNY   61  53  75 VRB5      30.22F
OSAGE BEACH    CLOUDY    61  54  77 E7        30.22F

$$
MOZ051-052-059>065-161700-
...EAST CENTRAL MISSOURI...

CITY           SKY/WX    TMP DP  RH WIND       PRES   REMARKS
ST LOUIS INTL  CLOUDY    61  54  77 N5        30.22F
SPIRIT OF STL  CLOUDY    61  54  77 NE5       30.22S HAZE
ST CHARLES     CLOUDY    60  54  80 CALM      30.22F

$$
MOZ072>076-082>087-097>100-106>115-161700-
...SOUTH CENTRAL AND SOUTHEAST MISSOURI...

CITY           SKY/WX    TMP DP  RH WIND       PRES   REMARKS
CAPE GIRARDEAU CLOUDY    64  55  72 N10       30.19F
FARMINGTON     CLOUDY    61  54  77 N6        30.23F
POPLAR BLUFF   CLOUDY    65  54  67 NE10      30.18S
WEST PLAINS    CLOUDY    65  57  75 E9        30.20F

$$


USA.gov is the U.S. government's official web portal to all federal, state and local government web resources and services.